Curtin, Australia

6:04 PM AWST on February 22, 2018 (GMT +0800)
Curtin

Weather History for YCIN - June, 2013

Change the Weather History Date:

Thursday, June 27, 2013

  Actual Average Record
Temperature  
Mean Temperature 78 °F -  
Max Temperature 85 °F - - ()
Min Temperature 69 °F - - ()
Cooling Degree Days 13    
Growing Degree Days 28 (Base 50)    
Moisture  
Dew Point 71 °F    
Average Humidity 85    
Maximum Humidity 100    
Minimum Humidity 62    
Precipitation  
Precipitation 0.00 in - - ()
Sea Level Pressure  
Sea Level Pressure 29.85 in    
Wind  
Wind Speed 4 mph ()    
Max Wind Speed 9 mph    
Max Gust Speed -    
T = Trace of Precipitation, MM = Missing Value Source: Averaged Metar Reports

Daily Weather History Graph

Daily Weather History Graph

Search for Another Location

Airport or City:

Trip Planner

Search our weather history database for the weather conditions in past years. The results will help you decide how hot, cold, wet, or windy it might be!

Date:

Astronomy

Jun. 27, 2013 Rise Set
Actual Time 6:15 AM AWST 5:20 PM AWST
Civil Twilight 5:51 AM AWST 5:43 PM AWST
Nautical Twilight 5:24 AM AWST 6:10 PM AWST
Astronomical Twilight 4:57 AM AWST 6:37 PM AWST
Moon 9:26 PM AWST (6/27) 9:18 AM AWST (6/27)
Length of Visible Light 11h 52m
Length of Day
11h 04m
Waning Gibbous, 81% of the Moon is Illuminated
Jun 27
Waning Gibbous
Jun 30
Last Quarter
Jul 8
New
Jul 16
First Quarter
Jul 23
Full

Hourly Weather History & Observations

Time (AWST) Temp. Heat Index Dew Point Humidity Pressure Visibility Wind Dir Wind Speed Gust Speed Precip Events Conditions
12:00 AM 74 °F - 72 °F 91% 29.85 in - North 3.5 mph - -  
12:00 AM 73.4 °F - 71.6 °F 94% 29.86 in - North 3.5 mph - N/A   Unknown
1:00 AM 73.4 °F - 73.4 °F 100% 29.86 in - North 3.5 mph - N/A   Unknown
2:00 AM 73.4 °F - 73.4 °F 100% 29.83 in - NNE 1.2 mph - N/A   Unknown
3:00 AM 75.2 °F - 73.4 °F 94% 29.83 in - West 4.6 mph - N/A   Unknown
4:00 AM 75.2 °F - 73.4 °F 94% 29.83 in - Calm Calm - N/A   Unknown
5:00 AM 73.4 °F - 73.4 °F 100% 29.83 in - SSE 4.6 mph - N/A   Unknown
6:00 AM 73 °F - 72 °F 94% 29.84 in - SSE 4.6 mph - -  
6:00 AM 73.4 °F - 71.6 °F 94% 29.83 in - SSE 4.6 mph - N/A   Unknown
7:00 AM 73.4 °F - 71.6 °F 94% 29.86 in - SE 3.5 mph - N/A   Unknown
8:00 AM 73.4 °F - 71.6 °F 94% 29.86 in - SE 3.5 mph - N/A   Unknown
9:00 AM 76 °F - 73 °F 87% 29.88 in - ESE 4.6 mph - -  
9:00 AM 75.2 °F - 73.4 °F 94% 29.89 in - ESE 4.6 mph - N/A   Unknown
10:00 AM 78.8 °F - 73.4 °F 83% 29.86 in - SE 4.6 mph - N/A   Unknown
11:00 AM 80.6 °F 85.4 °F 73.4 °F 79% 29.86 in - South 6.9 mph - N/A   Unknown
12:00 PM 83 °F - 74 °F 67% 29.83 in - SSW 6.9 mph - -  
12:00 PM 82.4 °F 88.2 °F 73.4 °F 74% 29.83 in - SSW 6.9 mph - N/A   Unknown
1:00 PM 84.2 °F 89.6 °F 71.6 °F 66% 29.80 in - SW 8.1 mph - N/A   Unknown
2:00 PM 82.4 °F 88.2 °F 73.4 °F 74% 29.80 in - SSW 9.2 mph - N/A   Unknown
3:00 PM 82 °F - 71 °F 62% 29.80 in - SW 6.9 mph - -  
3:00 PM 82.4 °F 87.2 °F 71.6 °F 70% 29.80 in - SW 6.9 mph - N/A   Unknown
4:00 PM 80.6 °F 84.6 °F 71.6 °F 74% 29.80 in - SSW 9.2 mph - N/A   Unknown
5:00 PM 78.8 °F - 69.8 °F 74% 29.83 in - SSW 6.9 mph - N/A   Unknown
6:00 PM 76 °F - 71 °F 78% 29.85 in - South 6.9 mph - -  
6:00 PM 77.0 °F - 69.8 °F 78% 29.83 in - South 6.9 mph - N/A   Unknown
7:00 PM 73.4 °F - 69.8 °F 88% 29.86 in - South 6.9 mph - N/A   Unknown
8:00 PM 71.6 °F - 69.8 °F 94% 29.89 in - South 5.8 mph - N/A   Unknown
9:00 PM 72 °F - 67 °F 81% 29.91 in - South 8.1 mph - -  
9:00 PM 71.6 °F - 68.0 °F 88% 29.92 in - South 8.1 mph - N/A   Unknown
10:00 PM 71.6 °F - 66.2 °F 83% 29.92 in - South 6.9 mph - N/A   Unknown
11:00 PM 69.8 °F - 66.2 °F 88% 29.92 in - SSE 8.1 mph - N/A   Unknown